Location: Malanoce
(44.2500°N, 7.4667°E)
Time: 07:06:05
(UTC+00:00)

BlueWalker 3 - Pass Details

Date: 23 January 2026
Orbit: 450 x 461 km, 53.2° (Epoch: 11 February)

Event Time Altitude Azimuth Distance (km) Brightness Sun altitude
Rises 17:45:16 0° 235° (SW) 2,447 6.8 -13.9°
Reaches altitude 10° 17:47:23 10° 236° (SW) 1,577 5.6 -14.3°
Maximum altitude 17:50:56 86° 326° (NW) 456 1.6 -14.9°
Enters shadow 17:52:37 29° 53° (NE) 847 2.6 -15.2°
